Find Hispasat 1E

NORAD ID: 37264 Int'l Des: 2010-070 Owner: HISP Country: E operational
HEOCIRCULARGSOGEO

Current View

Loading 3D Globe...

About Hispasat 1E

Hispasat 1E (NORAD 37264) is a satellite launched Dec 29, 2010 by HISP of E. It operates in HEO, CIRCULAR, GSO, GEO orbit with a mass of 5270.00 kg.

Upcoming Passes

Passes for default location (London). Set your location on the main map for personalized predictions.

Altitude History

Loading altitude history...

Two-Line Element Set

1 37264U 10070A 26195.12538162 -.00000222 00000-0 00000+0 0 9997
2 37264 0.0269 111.9940 0005553 14.9124 180.2221 1.00270601 53455
Epoch: Jul 14, 2026 • Age: 10 hours

Current Status

Altitude 35766.2 km
Apogee / Perigee N/A
Velocity 3.08 km/s
Sub-Earth Point 0.01°N, 30.03°W
Launch Date Dec 29, 2010
Age 15.5 years
Type other

Technical Details

Classification Payload
Mass 5270.00 kg
Dry Mass 3000.00 kg
Total Mass 5270.00 kg
Length 5.40 m
Diameter 2.20 m
Span 26.70 m
Shape Box + 2 Cruci Pan
Manufacturer LOR
Bus Type SSL-1300
Phase Status Renamed
Owner/State HISP/E

Most Searched